This demonstration page uses our WeatherBlox Daily Observations layout. Learn more.

Left ArrowRight Arrow

Hourly Observations for June 24, 2017

Temp ( °F °C ) Dew Point ( °F °C ) Humidity (%) Winds ( mph kmh ) Pressure ( in mb ) Visibility ( mi km ) Precip ( " mm )
12:56 am 00:56 Clear 56 13.5 49 9.2 75 75 WNW 9 15 30.12 1020 10 16 0.00 0.00
1:56 am 01:56 Clear 55 12.5 45 7.4 71 71 WNW 8 13 30.12 1020 10 16 0.00 0.00
2:56 am 02:56 Clear 53 11.4 46 7.7 78 78 WNW 9 15 30.12 1020 10 16 0.00 0.00
3:56 am 03:56 Clear 52 11.3 45 7 75 75 WNW 9 15 30.15 1021 10 16 0.00 0.00
4:56 am 04:56 Clear 49 9.7 44 6.8 82 82 WNW 5 7 30.14 1021 10 16 0.00 0.00
5:56 am 05:56 Sunny 51 10.5 45 7.2 80 80 WNW 8 13 30.15 1021 10 16 0.00 0.00
6:56 am 06:56 Sunny 53 11.9 46 8 77 77 WNW 8 13 30.16 1022 10 16 0.00 0.00
7:56 am 07:56 Sunny 58 14.2 47 8.2 67 67 WNW 9 15 30.17 1022 10 16 0.00 0.00
8:56 am 08:56 Sunny 63 17.1 46 8 55 55 WNW 5 7 30.18 1022 10 16 0.00 0.00
9:56 am 09:56 Sunny 67 19.6 45 7.3 45 45 WNW 8 13 30.18 1022 10 16 0.00 0.00
10:56 am 10:56 Sunny 73 22.6 42 5.5 33 33 W 12 19 30.19 1022 10 16 0.00 0.00
11:56 am 11:56 Sunny 75 23.9 39 3.8 27 27 W 16 26 30.18 1022 10 16 0.00 0.00
12:24 pm 12:24 Sunny 75 24 37 3 25 25 WNW 13 20 30.18 1022 10 16 0.00 0.00
12:44 pm 12:44 Sunny 77 25 37 3 24 24 WNW 13 20 30.18 1022 10 16 0.00 0.00
12:56 pm 12:56 Sunny 76 24.7 38 3.3 25 25 W 14 22 30.18 1022 10 16 0.00 0.00
12:59 pm 12:59 Sunny 77 25 37 3 24 24 NW 17 28 30.18 1022 10 16 0.00 0.00
1:56 pm 13:56 Mostly Sunny 78 25.8 40 4.3 25 25 W 18 30 30.17 1022 10 16 0.00 0.00
2:57 pm 14:57 Partly Cloudy 77 24.8 39 4 26 26 WNW 15 24 30.15 1021 10 16 0.00 0.00
3:56 pm 15:56 Mostly Sunny 81 27 39 4.1 23 23 W 13 20 30.14 1021 10 16 0.00 0.00
4:56 pm 16:56 Mostly Cloudy 80 26.5 39 3.7 23 23 NW 17 28 30.12 1020 10 16 0.00 0.00
5:56 pm 17:56 Mostly Cloudy 80 26.4 40 4.2 24 24 WNW 16 26 30.11 1020 10 16 0.00 0.00
6:56 pm 18:56 Mostly Cloudy 76 24.4 40 4.2 27 27 WNW 14 22 30.11 1020 10 16 0.00 0.00
7:56 pm 19:56 Mostly Cloudy 74 23.5 43 6.3 33 33 WNW 9 15 30.11 1020 10 16 0.00 0.00
8:56 pm 20:56 Mostly Cloudy 67 19.6 46 8 47 47 NW 7 11 30.12 1020 10 16 0.00 0.00
9:56 pm 21:56 Clear 62 16.4 47 8.1 58 58 NW 5 7 30.15 1021 10 16 0.00 0.00
10:56 pm 22:56 Clear 60 15.8 44 6.8 55 55 NW 3 6 30.17 1022 10 16 0.00 0.00
11:56 pm 23:56 Clear 57 14.1 46 7.6 65 65 NNW 3 6 30.19 1022 10 16 0.00 0.00

Powered by AerisWeather